Location: Asheville, NC
(35.6000°N, 82.5500°W)
Time: 20:12:13
(UTC-04:00)

RS-15 - Pass Details

Date: 10 January 2018
Orbit: 1889 x 2156 km, 64.8° (Epoch: 24 April)

Event Time Altitude Azimuth Distance (km) Brightness Sun altitude
Rises 18:58:33 0° 331° (NNW) 5,575 10.6 -16.5°
Reaches altitude 10° 19:02:09 10° 335° (NNW) 4,538 10.1 -17.2°
Maximum altitude 19:13:41 58° 54° (NE) 2,239 8.0 -19.5°
Drops below altitude 10° 19:24:34 10° 132° (SE) 4,317 9.5 -21.7°
Sets 19:27:51 0° 136° (SE) 5,291 10.0 -22.3°
